DMSP 5D-2 F13 DEB, 40575

Orbit data source: Space-Track

DMSP 5D-2 F13 DEB, 40575 is space debris in SSO originally from a launch on Fri, 24 Mar 1995 UTC launched from the Air Force Western Test Range (AFWTR). Debris objects in space refer to the collection of defunct objects orbiting the Earth. Examples of debris include non-operational satellites, rocket bodies, and fragments generated from explosions, collisions, or faulty payload assembly.

Loading next visibility...
Identifier
40575, 1995-015EJ
Orbit
SSO
Country
Flag of USUS
Related business
Manufacturer
Unknown
Mission
Spacecraft
Bus & Motor
Unknown
Mass
Unknown
Launch date (UTC)
1995-03-24 (31 years ago)
Launch vehicle
Unknown
Launch site
Air Force Western Test Range (AFWTR)
Object type
Payload
Rocket body
Debris
Shape & HBR
Unknown shape, 0.1 m
Radar Cross Section
Small (<0.1 m²)

Expand to show TLE details & history
Last TLE update: 2 days ago

TLE from 2 days ago
0 DMSP 5D-2 F13 DEB
1 40575U 95015EJ  25341.86049255  .00011363  00000-0  29229-2 0  9995
2 40575  98.6002  25.6301 0011695  41.8568 318.3517 14.50262393556716
Epoch: 2025-12-07T20:39Z
TLE epoch observation values (Epoch: 2025-12-07T20:39:06.556Z)
Latitude
-0.00008°
Longitude
-1.01502°
Altitude
721.547 km
Speed
7.498 km/s
True Right ascension
01h 42m 31s
True Declination
0° 00' 00"
Sunlit
Object was in full shadow at epoch
Visualization orbit readout
Latitude
Unknown
Longitude
Unknown
Altitude
Unknown
Speed
Unknown
Apparent Right ascension
Unknown
Apparent Declination
Unknown
Sunlit
N/A
Visualization observer readout
Local Sidereal Time
12:52:13
Azimuth
Unknown
Elevation
Unknown
Doppler factor
Unknown
Orbital elements
Apogee altitude
730.208 km
Perigee altitude
713.601 km
Semi-major axis
7,100.042 km
Eccentricity
0.00117
Inclination
98.6002°
RAAN
25.6301°
Arg. of periapsis
41.8568°
True anomaly
318.26254°
Mean anomaly
318.3517°
Eccentric anomaly
318.30713°
Mean motion
3.62787 °/min
Orbital period
99.23 mins
BSTAR
0.0029229
Loading maneuver chart data...
Computing Atmospheric mass density...

Documentation

Showing up to 5 results
|